Home > Weather > Marseille > Past weeks

Flag for France Past Weather in Marseille, Provence-Alpes-Côte d'Azur, France — Yesterday and Last 2 Weeks

Now
90 °F

Passing clouds.


Feels Like: 89 °F
Forecast: 70 / 88 °F
Wind: 10 mph from Northwest

Location: Marseille / Marignane

Current Time: Jul 24, 2016 at 6:41:16 PM

Latest Report: Jul 24, 2016 at 6:00 PM


Visibility: N/A

Pressure: 29.95 "Hg

Humidity: 36%

Dew Point: 59 °F

Location of MarseilleLocation

Past Weather in Marseille — Graph

°F

Marseille Temperature Yesterday

Maximum temperature yesterday: 82 °F (at 4:30 PM)
Minimum temperature yesterday: 70 °F (at 6:00 AM)
Average temperature yesterday: 74 °F

High & Low Weather Summary for the Past Weeks

 TemperatureHumidityPressure
High95 °F (Jul 11, 2:00 PM)89% (Jul 11, 12:30 AM)30.18 "Hg (Jul 11, 12:30 AM)
Low61 °F (Jul 16, 4:00 AM)19% (Jul 19, 3:30 PM)29.86 "Hg (Jul 12, 3:30 PM)
Average75 °F55%30.01 "Hg
* Reported Jul 9 5:00 PM — Jul 24 5:30 PM, Marseille, Weather by CustomWeather, © 2016

Note: Actual official high and low records may vary slightly from our data, if they occured in-between our weather recording intervals... More about our weather records

Advertising

Marseille Weather History for the Previous 24 Hours

Scroll right to see more
 ConditionsComfort  
Time TempWeatherWind HumidityBarometerVisibility
5:30 PM
Sun, Jul 24
90 °FSunny.14 mph41%29.95 "Hg10 mi
5:00 PM91 °FSunny.14 mph36%29.95 "Hg10 mi
4:30 PM91 °FSunny.16 mph38%29.95 "Hg10 mi
4:00 PM90 °FSunny.15 mph43%29.95 "Hg10 mi
3:30 PM90 °FPassing clouds.12 mph38%29.95 "HgN/A
3:00 PM90 °FSunny.10 mph41%29.98 "Hg10 mi
2:30 PM88 °FSunny.10 mph40%29.98 "Hg10 mi
2:00 PM88 °FSunny.10 mph43%29.98 "Hg10 mi
1:30 PM86 °FSunny.10 mph46%29.98 "Hg10 mi
1:00 PM86 °FPassing clouds.9 mph46%29.98 "HgN/A
12:30 PM84 °FPassing clouds.7 mph51%29.98 "HgN/A
12:00 PM84 °FPassing clouds.9 mph48%29.98 "HgN/A
11:30 AM82 °FSunny.9 mph51%29.98 "Hg10 mi
11:00 AM81 °FSunny.10 mph51%30.01 "Hg10 mi
10:30 AM79 °FSunny.12 mph58%30.01 "Hg10 mi
10:00 AM77 °FSunny.9 mph65%30.01 "Hg10 mi
9:30 AM73 °FPassing clouds.7 mph69%30.01 "HgN/A
9:00 AM72 °FSunny.5 mph73%29.98 "Hg10 mi
8:30 AM72 °FSunny.5 mph73%30.01 "Hg10 mi
8:00 AM68 °FSunny.6 mph78%29.98 "Hg10 mi
7:30 AM66 °FSunny.1 mph88%29.98 "Hg10 mi
7:00 AM64 °FClear.5 mph88%29.98 "Hg10 mi
6:30 AM64 °FClear.2 mph88%29.98 "Hg10 mi
6:00 AM64 °FClear.2 mph88%29.98 "Hg10 mi
5:30 AM64 °FClear.No wind88%29.98 "Hg10 mi
5:00 AM64 °FClear.No wind88%29.98 "Hg10 mi
4:30 AM66 °FClear.3 mph88%29.98 "Hg10 mi
4:00 AM66 °FPassing clouds.3 mph83%29.98 "HgN/A
3:30 AM68 °FClear.6 mph83%29.98 "Hg10 mi
3:00 AM66 °FClear.No wind88%29.98 "Hg10 mi
2:30 AM68 °FClear.2 mph83%29.98 "Hg10 mi
2:00 AM72 °FClear.7 mph73%29.98 "Hg10 mi
1:30 AM70 °FClear.3 mph78%29.98 "Hg10 mi
1:00 AM70 °FClear.6 mph78%29.98 "Hg10 mi
12:30 AM68 °FClear.3 mph83%29.98 "Hg10 mi
12:00 AM70 °FPassing clouds.6 mph78%29.98 "HgN/A
11:30 PM
Sat, Jul 23
72 °FClear.3 mph78%29.98 "Hg10 mi
11:00 PM72 °FClear.6 mph78%29.98 "Hg10 mi
10:30 PM72 °FClear.2 mph78%29.98 "Hg10 mi
10:00 PM73 °FSunny.3 mph69%29.98 "Hg10 mi
9:30 PM73 °FSunny.1 mph69%29.95 "Hg10 mi
9:00 PM75 °FSunny.2 mph61%29.95 "Hg10 mi
8:30 PM75 °FSunny.No wind65%29.95 "Hg10 mi
8:00 PM75 °FSunny.3 mph65%29.95 "Hg10 mi
7:30 PM75 °FSunny.2 mph65%29.95 "Hg10 mi
7:00 PM75 °FSunny.3 mph61%29.95 "Hg10 mi
6:30 PM73 °FPartly sunny.3 mph69%29.95 "HgN/A
6:00 PM73 °FLight rain. Broken clouds.2 mph69%29.95 "HgN/A
Weather by CustomWeather, © 2016

See weather overviewHow to use our weather pages